SNEZKA Weather Reports


time (UTC)temp
C
wind
direction
speed
KPH
gust
KPH
rain 1hr
cm
rain 24hr
cm
rain mn
cm
humidity
%
barometer
mb
20260904102419 10 210 41.8 86.9 0.00 0.00 0.00 99
20260904092032 10 210 35.4 72.4 0.00 0.00 0.00 99
20260904082031 10 230 49.9 75.6 0.00 0.00 0.00 99
20260904072220 8 250 72.4 96.6 0.00 0.00 0.00 99
20260904062003 8 250 69.2 86.9 0.00 0.00 0.00 99
20260904052011 7 260 83.7 0.0 0.00 0.00 0.00 99
20260904042404 7 260 72.4 0.0 0.00 0.00 0.00 99
20260904031945 7 270 61.2 78.9 0.00 0.00 0.00 99
20260904022010 7 270 78.9 99.8 0.00 0.00 0.00 99
20260904012306 7 260 90.1 0.0 0.00 0.00 0.00 99
20260904002010 7 270 78.9 0.0 0.00 0.00 0.00 99
20260903232011 7 250 72.4 95.0 0.00 0.00 0.00 99
20260903222404 7 240 83.7 107.8 0.00 0.00 0.00 99
20260903212011 7 230 61.2 95.0 0.00 0.00 0.00 99
20260903202011 8 230 69.2 86.9 0.00 0.00 0.00 99
20260903192204 7 210 64.4 96.6 0.00 0.00 0.00 99
20260903182011 8 220 64.4 95.0 0.00 0.00 0.00 93
20260903172028 8 200 38.6 78.9 0.00 0.00 0.00 87
20260903162319 8 200 29.0 61.2 0.00 0.00 0.00 87
20260903152010 8 230 41.8 72.4 0.00 0.00 0.00 87
20260903142011 8 200 29.0 46.7 0.00 0.00 0.00 81
20260903132204 7 220 22.5 38.6 0.00 0.00 0.00 87
20260903122010 7 230 22.5 0.0 0.00 0.00 0.00 93
20260903111957 7 230 35.4 0.0 0.00 0.00 0.00 93